Regional Weather Roundup
Issued by NWS Northern Indiana

Home | Current Version | Previous Version | Graphics & Text | Print | Product List | Glossary On
Versions: 1 2 3 4 5 6 7 8 9 10 11 12 13 14 15 16 17 18 19 20 21 22 23 24 25 26 27 28 29 30 31 32 33 34 35 36 37 38 39 40 41 42 43 44 45 46 47 48 49 50
000
ASUS43 KIWX 281910
RWRIWX

KIWX WEATHER ROUNDUP
NATIONAL WEATHER SERVICE NORTHERN INDIANA
300 PM EDT TUE JUL 28 2015

NOTE: "FAIR" INDICATES FEW OR NO CLOUDS BELOW 12,000 FEET WITH NO
SIGNIFICANT WEATHER AND/OR OBSTRUCTIONS TO VISIBILITY.

* THESE STATIONS ARE NOT UNDER NWS QUALITY CONTROL. THEY ALSO MAY NOT
  REPORT WEATHER SUCH AS PRECIPITATION OR FOG.

INZ001>027-282000-
NORTHERN INDIANA

CITY           SKY/WX    TMP DP  RH WIND       PRES   REMARKS
GARY*          PTSUNNY   88  72  58 MISG      29.98S
VALPARAISO     MOSUNNY   88  70  55 SE5       29.99
MICHIGAN CITY* MOSUNNY   88  66  48 S7        29.99F
LAPORTE*       MOSUNNY   87  70  56 S3        30.00F
KNOX*          MOSUNNY   86  68  54 S9        29.98F
SOUTH BEND     MOSUNNY   88  66  48 S9        30.00F
GOSHEN         MOSUNNY   88  68  51 S10G18    30.00F
MONTICELLO*    SUNNY     88  73  61 S5        29.97F HX  96
LOGANSPORT*    PTSUNNY   88  64  45 CALM      29.99F
ROCHESTER*     MOSUNNY   90  72  55 S6        30.00F HX  96
WARSAW*        MOSUNNY   86  68  54 E6        30.01S
ANGOLA*        SUNNY     88  64  45 SE7       30.02F
FORT WAYNE     MOSUNNY   88  69  53 VRB5      30.00F
HUNTINGTON*    MOSUNNY   87  69  54 S5        30.00S
PERU/GRISSOM   MOSUNNY   87  72  61 VRB5      29.98F
MARION*        MOSUNNY   87  70  57 S5        30.00F HAZE

$$
INZ028>050-282000-
CENTRAL INDIANA

CITY           SKY/WX    TMP DP  RH WIND       PRES   REMARKS
LAFAYETTE      SUNNY     88  73  61 VRB3      29.97F HX  95
KOKOMO*        MOSUNNY   90  72  55 CALM      29.99S HX  96
MUNCIE*        PTSUNNY   84  72  67 NE6       30.00F
INDIANAPOLIS   MOSUNNY   91  71  51 VRB3      29.97F HX  97

$$
MIZ043>046-050>051-056>058-064>065-071>073-077>080-282000-
SOUTHWEST LOWER MICHIGAN

CITY           SKY/WX    TMP DP  RH WIND       PRES   REMARKS
BATTLE CREEK   MOSUNNY   87  63  44 SW7       30.03F
BENTON HARBOR  MOSUNNY   87  66  49 S6        29.98F
COLDWATER*     SUNNY     85  63  47 S5        30.02S
HILLSDALE*     SUNNY     87  62  44 E5        30.04S
HOLLAND        MOSUNNY   89  60  37 SE8       30.00F
GRAND RAPIDS   PTSUNNY   88  59  37 SE7       30.01F
KALAMAZOO      MOSUNNY   88  65  46 S6        30.01F
STURGIS*       MOSUNNY   84  63  48 E5        30.01F
THREE RIVERS*  FAIR      87  63  44 SE3       30.02S

$$
OHZ001>008-015>018-024>025-282000-
NORTHWEST OHIO

CITY           SKY/WX    TMP DP  RH WIND       PRES   REMARKS
DEFIANCE       SUNNY     90  60  36 SE3       30.01S
FINDLAY        SUNNY     89  61  38 SW5       30.00F
TOLEDO EXPRESS MOSUNNY   90  63  40 VRB5      30.01S
TOLEDO METCALF SUNNY     89  64  43 VRB6      30.02S
LIMA           MOSUNNY   87  65  47 VRB6      30.00F

$$
AND FOR LAKE MICHIGAN COASTAL AND OPEN LAKE BUOY OBSERVATIONS

STATION/POSITION TEMP    WIND        PRES    VSBY  WAVE
                 AIR SEA DIR/SP/G                  HT/PER
                 (F)     (DEG/KT/KT) (MB)    (MI)  (FT/S)
CALUMET HARBOR    77      40/  8/ 10   N/A
MICHIGAN CITY     84     120/  7/ 12   N/A
BURNS HARBOR      86     170/  7/ 11 1015.9S
SAINT JOSEPH      81     360/  3/  4 1015.9F
4 MI NW BRIDGMAN  81 77  300/  4/  6   N/A           0
MICHIGAN CITY     82 77  150/  2/  4   N/A           0
MICHIGAN CITY CG  90 70  160/  5       N/A    3 1/2  1

$$
&&



USA.gov is the U.S. government's official web portal to all federal, state and local government web resources and services.